User: anonymous   Login
Location: Fort Wayne
(41.1310°N, 85.1290°W)
Time: 17:28:45
(UTC-04:00)
Language:

Cosmos 2082 - Orbit

View from above orbital plane
View from above orbital plane
View from above satellite
View from above satellite

Ground track
Ground track

The orbit data is extracted from the following two-line orbital elements,

1 20624U 90046A   17086.92656663 +.00000306 +00000-0 +18479-3 0  9999
2 20624 071.0429 024.6465 0014247 158.8241 201.3474 14.14223154385489
Epoch (UTC): 27 March 2017 22:14:15
Eccentricity: 0.0014247
inclination: 71.0429°
perigee height: 834 km
apogee height: 855 km
right ascension of ascending node: 24.6465°
argument of perigee: 158.8241°
revolutions per day: 14.14223154
mean anomaly at epoch: 201.3474°
orbit number at epoch: 38548

The dashed part of the orbit path shows where the satellite is in the earth's shadow,  

DLR